Time,TemperatureF,DewpointF,PressureIn,WindDirection,WindDirectionDegrees,WindSpeedMPH,WindSpeedGustMPH,Humidity,HourlyPrecipIn,Conditions,Clouds,dailyrainin,SoftwareType,DateUTC
2013-07-31 00:02:00,60.0,37.0,-100.00,NE,45,5.0,8.0,41,-99.99,,,-99.99,,2013-07-31 07:02:00,
2013-07-31 00:12:00,60.0,38.0,-100.00,NE,45,3.0,5.0,44,-99.99,,,-99.99,,2013-07-31 07:12:00,
2013-07-31 00:22:00,60.0,38.0,-100.00,NE,45,3.0,5.0,44,-99.99,,,-99.99,,2013-07-31 07:22:00,
2013-07-31 00:32:00,59.0,39.0,-100.00,NE,45,2.0,6.0,47,-99.99,,,-99.99,,2013-07-31 07:32:00,
2013-07-31 00:52:00,59.0,39.0,-100.00,NE,45,3.0,5.0,48,-99.99,,,-99.99,,2013-07-31 07:52:00,
2013-07-31 01:02:00,58.0,39.0,-100.00,North,0,1.0,6.0,49,-99.99,,,-99.99,,2013-07-31 08:02:00,
2013-07-31 01:12:00,58.0,39.0,-100.00,North,0,1.0,6.0,49,-99.99,,,-99.99,,2013-07-31 08:12:00,
2013-07-31 01:22:00,59.0,40.0,-100.00,North,0,4.0,6.0,49,-99.99,,,-99.99,,2013-07-31 08:22:00,
2013-07-31 01:32:00,59.0,40.0,-100.00,North,0,2.0,7.0,50,-99.99,,,-99.99,,2013-07-31 08:32:00,
2013-07-31 01:42:00,58.0,39.0,-100.00,North,0,1.0,6.0,50,-99.99,,,-99.99,,2013-07-31 08:42:00,
2013-07-31 01:53:00,58.0,39.0,-100.00,North,0,1.0,6.0,50,-99.99,,,-99.99,,2013-07-31 08:53:00,
2013-07-31 02:02:00,58.0,40.0,-100.00,NE,45,2.0,3.0,50,-99.99,,,-99.99,,2013-07-31 09:02:00,
2013-07-31 02:12:00,58.0,40.0,-100.00,NE,45,2.0,3.0,50,-99.99,,,-99.99,,2013-07-31 09:12:00,
2013-07-31 02:52:00,56.0,39.0,-100.00,NE,45,2.0,6.0,53,-99.99,,,-99.99,,2013-07-31 09:52:00,
2013-07-31 03:02:00,57.0,41.0,-100.00,NE,45,2.0,4.0,55,-99.99,,,-99.99,,2013-07-31 10:02:00,
2013-07-31 03:12:00,57.0,41.0,-100.00,NE,45,2.0,4.0,55,-99.99,,,-99.99,,2013-07-31 10:12:00,
2013-07-31 03:22:00,58.0,41.0,-100.00,NE,45,2.0,6.0,54,-99.99,,,-99.99,,2013-07-31 10:22:00,
2013-07-31 03:32:00,57.0,41.0,-100.00,NE,45,0.0,4.0,55,-99.99,,,-99.99,,2013-07-31 10:32:00,
2013-07-31 04:03:00,57.0,40.0,-100.00,NE,45,0.0,3.0,54,-99.99,,,-99.99,,2013-07-31 11:03:00,
2013-07-31 04:12:00,57.0,40.0,-100.00,NE,45,0.0,3.0,54,-99.99,,,-99.99,,2013-07-31 11:12:00,
2013-07-31 04:22:00,57.0,40.0,-100.00,NE,45,2.0,3.0,52,-99.99,,,-99.99,,2013-07-31 11:22:00,
2013-07-31 04:33:00,57.0,39.0,-100.00,NE,45,1.0,3.0,52,-99.99,,,-99.99,,2013-07-31 11:33:00,
2013-07-31 05:02:00,59.0,33.0,-100.00,NE,45,1.0,2.0,37,-99.99,,,-99.99,,2013-07-31 12:02:00,
2013-07-31 05:12:00,59.0,33.0,-100.00,NE,45,1.0,2.0,37,-99.99,,,-99.99,,2013-07-31 12:12:00,
2013-07-31 09:43:00,67.0,33.0,-100.00,SE,135,3.0,8.0,28,-99.99,,,-99.99,,2013-07-31 16:43:00,
2013-07-31 09:52:00,67.0,33.0,-100.00,SE,135,3.0,8.0,28,-99.99,,,-99.99,,2013-07-31 16:52:00,
2013-07-31 10:02:00,67.0,31.0,-100.00,East,90,6.0,8.0,26,-99.99,,,-99.99,,2013-07-31 17:02:00,
2013-07-31 10:22:00,66.0,31.0,-100.00,SE,135,4.0,9.0,27,-99.99,,,-99.99,,2013-07-31 17:22:00,
2013-07-31 10:33:00,68.0,32.0,-100.00,SE,135,5.0,9.0,27,-99.99,,,-99.99,,2013-07-31 17:33:00,
2013-07-31 10:43:00,69.0,31.0,-100.00,NE,45,3.0,7.0,24,-99.99,,,-99.99,,2013-07-31 17:43:00,
2013-07-31 10:53:00,69.0,31.0,-100.00,NE,45,3.0,7.0,24,-99.99,,,-99.99,,2013-07-31 17:53:00,
2013-07-31 11:02:00,68.0,33.0,-100.00,SE,135,2.0,6.0,27,-99.99,,,-99.99,,2013-07-31 18:02:00,
2013-07-31 11:22:00,68.0,31.0,-100.00,SE,135,4.0,7.0,26,-99.99,,,-99.99,,2013-07-31 18:22:00,
2013-07-31 11:32:00,68.0,34.0,-100.00,North,0,3.0,6.0,28,-99.99,,,-99.99,,2013-07-31 18:32:00,
2013-07-31 11:43:00,70.0,37.0,-100.00,East,90,3.0,6.0,30,-99.99,,,-99.99,,2013-07-31 18:43:00,
2013-07-31 11:52:00,70.0,37.0,-100.00,East,90,3.0,6.0,30,-99.99,,,-99.99,,2013-07-31 18:52:00,
2013-07-31 12:12:00,68.0,36.0,-100.00,SE,135,8.0,12.0,31,-99.99,,,-99.99,,2013-07-31 19:12:00,
2013-07-31 12:22:00,66.0,36.0,-100.00,SE,135,3.0,8.0,33,-99.99,,,-99.99,,2013-07-31 19:22:00,
2013-07-31 12:32:00,66.0,37.0,-100.00,East,90,3.0,8.0,34,-99.99,,,-99.99,,2013-07-31 19:32:00,
2013-07-31 12:52:00,63.0,39.0,-100.00,East,90,3.0,9.0,41,-99.99,,,-99.99,,2013-07-31 19:52:00,
2013-07-31 13:02:00,65.0,36.0,-100.00,NE,45,1.0,4.0,34,-99.99,,,-99.99,,2013-07-31 20:02:00,
2013-07-31 13:22:00,65.0,39.0,-100.00,East,90,5.0,7.0,38,-99.99,,,-99.99,,2013-07-31 20:22:00,
2013-07-31 13:42:00,67.0,36.0,-100.00,East,90,4.0,8.0,32,-99.99,,,-99.99,,2013-07-31 20:42:00,
2013-07-31 13:52:00,67.0,36.0,-100.00,East,90,4.0,8.0,32,-99.99,,,-99.99,,2013-07-31 20:52:00,
2013-07-31 14:02:00,68.0,38.0,-100.00,East,90,4.0,9.0,33,-99.99,,,-99.99,,2013-07-31 21:02:00,
2013-07-31 14:12:00,68.0,38.0,-100.00,East,90,4.0,9.0,33,-99.99,,,-99.99,,2013-07-31 21:12:00,
2013-07-31 14:21:00,69.0,34.0,-100.00,NE,45,8.0,11.0,28,-99.99,,,-99.99,,2013-07-31 21:21:00,
2013-07-31 14:53:00,68.0,35.0,-100.00,NE,45,8.0,16.0,29,-99.99,,,-99.99,,2013-07-31 21:53:00,
2013-07-31 15:02:00,68.0,35.0,-100.00,East,90,7.0,16.0,30,-99.99,,,-99.99,,2013-07-31 22:02:00,
2013-07-31 15:11:00,68.0,35.0,-100.00,East,90,7.0,16.0,30,-99.99,,,-99.99,,2013-07-31 22:11:00,
2013-07-31 15:22:00,68.0,34.0,-100.00,East,90,12.0,19.0,29,-99.99,,,-99.99,,2013-07-31 22:22:00,
2013-07-31 15:32:00,67.0,34.0,-100.00,East,90,8.0,16.0,29,-99.99,,,-99.99,,2013-07-31 22:32:00,
2013-07-31 15:53:00,67.0,34.0,-100.00,NE,45,7.0,16.0,29,-99.99,,,-99.99,,2013-07-31 22:53:00,
2013-07-31 16:02:00,66.0,34.0,-100.00,East,90,6.0,11.0,30,-99.99,,,-99.99,,2013-07-31 23:02:00,
2013-07-31 16:11:00,66.0,34.0,-100.00,East,90,6.0,11.0,30,-99.99,,,-99.99,,2013-07-31 23:11:00,
2013-07-31 16:22:00,66.0,35.0,-100.00,West,270,6.0,9.0,32,-99.99,,,-99.99,,2013-07-31 23:22:00,
2013-07-31 16:42:00,55.0,45.0,-100.00,NW,315,9.0,22.0,70,-99.99,,,-99.99,,2013-07-31 23:42:00,
2013-07-31 16:52:00,55.0,45.0,-100.00,NW,315,9.0,22.0,70,-99.99,,,-99.99,,2013-07-31 23:52:00,
2013-07-31 17:02:00,56.0,44.0,-100.00,NE,45,6.0,18.0,65,-99.99,,,-99.99,,2013-08-01 00:02:00,
2013-07-31 17:11:00,56.0,44.0,-100.00,NE,45,6.0,18.0,65,-99.99,,,-99.99,,2013-08-01 00:11:00,
2013-07-31 17:22:00,55.0,44.0,-100.00,North,0,7.0,16.0,65,-99.99,,,-99.99,,2013-08-01 00:22:00,
2013-07-31 17:42:00,56.0,43.0,-100.00,North,0,6.0,16.0,61,-99.99,,,-99.99,,2013-08-01 00:42:00,
2013-07-31 18:02:00,58.0,44.0,-100.00,North,0,6.0,18.0,59,-99.99,,,-99.99,,2013-08-01 01:02:00,
2013-07-31 18:11:00,58.0,44.0,-100.00,North,0,6.0,18.0,59,-99.99,,,-99.99,,2013-08-01 01:11:00,
2013-07-31 18:22:00,57.0,44.0,-100.00,NE,45,4.0,12.0,62,-99.99,,,-99.99,,2013-08-01 01:22:00,
2013-07-31 18:32:00,58.0,45.0,-100.00,NE,45,7.0,10.0,62,-99.99,,,-99.99,,2013-08-01 01:32:00,
2013-07-31 18:42:00,59.0,45.0,-100.00,NE,45,7.0,11.0,60,-99.99,,,-99.99,,2013-08-01 01:42:00,
2013-07-31 19:02:00,58.0,42.0,-100.00,NE,45,7.0,14.0,56,-99.99,,,-99.99,,2013-08-01 02:02:00,
2013-07-31 19:12:00,57.0,40.0,-100.00,NE,45,8.0,14.0,53,-99.99,,,-99.99,,2013-08-01 02:12:00,
2013-07-31 19:22:00,57.0,40.0,-100.00,NE,45,8.0,14.0,53,-99.99,,,-99.99,,2013-08-01 02:22:00,
2013-07-31 19:32:00,54.0,45.0,-100.00,NE,45,6.0,12.0,72,-99.99,,,-99.99,,2013-08-01 02:32:00,
2013-07-31 19:42:00,54.0,44.0,-100.00,NE,45,3.0,9.0,69,-99.99,,,-99.99,,2013-08-01 02:42:00,
2013-07-31 19:52:00,54.0,44.0,-100.00,NE,45,3.0,9.0,69,-99.99,,,-99.99,,2013-08-01 02:52:00,
2013-07-31 20:02:00,55.0,45.0,-100.00,NE,45,4.0,9.0,69,-99.99,,,-99.99,,2013-08-01 03:02:00,
2013-07-31 20:22:00,55.0,45.0,-100.00,NE,45,4.0,7.0,68,-99.99,,,-99.99,,2013-08-01 03:22:00,
2013-07-31 20:32:00,55.0,43.0,-100.00,North,0,1.0,4.0,62,-99.99,,,-99.99,,2013-08-01 03:32:00,
2013-07-31 20:53:00,55.0,41.0,-100.00,North,0,6.0,11.0,59,-99.99,,,-99.99,,2013-08-01 03:53:00,
2013-07-31 21:02:00,55.0,41.0,-100.00,SW,225,5.0,15.0,58,-99.99,,,-99.99,,2013-08-01 04:02:00,
2013-07-31 21:12:00,55.0,41.0,-100.00,SW,225,5.0,15.0,58,-99.99,,,-99.99,,2013-08-01 04:12:00,
2013-07-31 21:22:00,52.0,44.0,-100.00,West,270,3.0,11.0,74,-99.99,,,-99.99,,2013-08-01 04:22:00,
2013-07-31 21:52:00,50.0,43.0,-100.00,NE,45,3.0,11.0,74,-99.99,,,-99.99,,2013-08-01 04:52:00,
2013-07-31 22:22:00,54.0,46.0,-100.00,NW,315,2.0,4.0,73,-99.99,,,-99.99,,2013-08-01 05:22:00,
2013-07-31 22:32:00,49.0,41.0,-100.00,North,0,4.0,6.0,73,-99.99,,,-99.99,,2013-08-01 05:32:00,
2013-07-31 22:43:00,53.0,40.0,-100.00,NE,45,6.0,11.0,61,-99.99,,,-99.99,,2013-08-01 05:43:00,
2013-07-31 22:53:00,53.0,40.0,-100.00,NE,45,6.0,11.0,61,-99.99,,,-99.99,,2013-08-01 05:53:00,
2013-07-31 23:02:00,52.0,40.0,-100.00,NE,45,0.0,9.0,64,-99.99,,,-99.99,,2013-08-01 06:02:00,
2013-07-31 23:11:00,52.0,40.0,-100.00,NE,45,0.0,9.0,64,-99.99,,,-99.99,,2013-08-01 06:11:00,
2013-07-31 23:32:00,53.0,39.0,-100.00,NW,315,0.0,2.0,58,-99.99,,,-99.99,,2013-08-01 06:32:00,
2013-07-31 23:52:00,52.0,39.0,-100.00,West,270,6.0,10.0,63,-99.99,,,-99.99,,2013-08-01 06:52:00,